Time,TemperatureF,DewpointF,PressureIn,WindDirection,WindDirectionDegrees,WindSpeedMPH,WindSpeedGustMPH,Humidity,HourlyPrecipIn,Conditions,Clouds,dailyrainin,SoftwareType,DateUTC
2013-04-11 00:01:00,48.0,41.0,30.24,SSE,157,1.0,3.0,77,0.00,,,0.23,,2013-04-11 07:01:00,
2013-04-11 00:12:00,48.0,41.0,30.24,SSE,157,1.0,3.0,77,0.00,,,0.23,,2013-04-11 07:12:00,
2013-04-11 00:21:00,48.0,41.0,30.24,SSE,163,1.0,4.0,78,0.00,,,0.23,,2013-04-11 07:21:00,
2013-04-11 00:31:00,48.0,41.0,30.25,SSE,165,0.0,5.0,78,0.00,,,0.23,,2013-04-11 07:31:00,
2013-04-11 00:42:00,48.0,41.0,30.25,SSE,165,0.0,5.0,78,0.00,,,0.23,,2013-04-11 07:42:00,
2013-04-11 00:52:00,48.0,42.0,30.26,South,173,1.0,6.0,79,0.00,,,0.23,,2013-04-11 07:52:00,
2013-04-11 01:02:00,48.0,42.0,30.26,SSW,207,1.0,6.0,80,0.00,,,0.23,,2013-04-11 08:02:00,
2013-04-11 01:11:00,48.0,42.0,30.26,SSW,207,1.0,6.0,80,0.00,,,0.23,,2013-04-11 08:11:00,
2013-04-11 01:22:00,47.0,41.0,30.25,South,186,1.0,9.0,80,0.00,,,0.23,,2013-04-11 08:22:00,
2013-04-11 01:32:00,47.0,41.0,30.26,SE,142,1.0,7.0,81,0.00,,,0.23,,2013-04-11 08:32:00,
2013-04-11 01:41:00,47.0,41.0,30.26,SE,142,1.0,7.0,81,0.00,,,0.23,,2013-04-11 08:41:00,
2013-04-11 01:52:00,46.0,41.0,30.26,SE,146,1.0,5.0,82,0.00,,,0.23,,2013-04-11 08:52:00,
2013-04-11 02:01:00,46.0,41.0,30.26,SW,223,0.0,7.0,83,0.00,,,0.23,,2013-04-11 09:01:00,
2013-04-11 02:11:00,46.0,41.0,30.26,SW,223,0.0,7.0,83,0.00,,,0.23,,2013-04-11 09:11:00,
2013-04-11 02:22:00,46.0,41.0,30.27,SE,142,1.0,8.0,83,0.00,,,0.23,,2013-04-11 09:22:00,
2013-04-11 02:32:00,47.0,42.0,30.26,SE,144,1.0,7.0,83,0.00,,,0.23,,2013-04-11 09:32:00,
2013-04-11 02:42:00,47.0,42.0,30.26,SE,144,1.0,7.0,83,0.00,,,0.23,,2013-04-11 09:42:00,
2013-04-11 02:53:00,47.0,42.0,30.25,SSW,204,4.0,7.0,83,0.00,,,0.23,,2013-04-11 09:53:00,
2013-04-11 03:02:00,47.0,42.0,30.25,South,186,4.0,12.0,82,0.00,,,0.23,,2013-04-11 10:02:00,
2013-04-11 03:12:00,47.0,42.0,30.25,SSW,209,4.0,12.0,82,0.00,,,0.23,,2013-04-11 10:12:00,
2013-04-11 03:22:00,47.0,42.0,30.25,SSW,209,4.0,12.0,82,0.00,,,0.23,,2013-04-11 10:22:00,
2013-04-11 03:32:00,46.0,41.0,30.25,SSW,209,4.0,10.0,82,0.00,,,0.23,,2013-04-11 10:32:00,
2013-04-11 03:41:00,46.0,41.0,30.25,SSW,209,4.0,10.0,82,0.00,,,0.23,,2013-04-11 10:41:00,
2013-04-11 03:52:00,46.0,41.0,30.24,South,186,3.0,11.0,83,0.00,,,0.23,,2013-04-11 10:52:00,
2013-04-11 04:02:00,46.0,41.0,30.24,South,186,3.0,11.0,83,0.00,,,0.23,,2013-04-11 11:02:00,
2013-04-11 04:11:00,46.0,41.0,30.25,West,265,3.0,10.0,83,0.00,,,0.23,,2013-04-11 11:11:00,
2013-04-11 04:22:00,46.0,41.0,30.24,SSE,153,3.0,13.0,83,0.00,,,0.23,,2013-04-11 11:22:00,
2013-04-11 04:31:00,46.0,41.0,30.24,WNW,295,3.0,10.0,83,0.00,,,0.23,,2013-04-11 11:31:00,
2013-04-11 04:42:00,46.0,41.0,30.24,WNW,295,3.0,10.0,83,0.00,,,0.23,,2013-04-11 11:42:00,
2013-04-11 04:52:00,46.0,41.0,30.24,SSW,201,3.0,10.0,83,0.00,,,0.23,,2013-04-11 11:52:00,
2013-04-11 05:01:00,46.0,41.0,30.24,SSW,211,3.0,14.0,83,0.00,,,0.23,,2013-04-11 12:01:00,
2013-04-11 05:12:00,46.0,41.0,30.24,SSW,211,3.0,14.0,83,0.00,,,0.23,,2013-04-11 12:12:00,
2013-04-11 05:22:00,46.0,41.0,30.24,South,183,2.0,12.0,83,0.00,,,0.23,,2013-04-11 12:22:00,
2013-04-11 05:31:00,46.0,41.0,30.24,SSW,194,3.0,10.0,82,0.00,,,0.23,,2013-04-11 12:31:00,
2013-04-11 05:42:00,46.0,41.0,30.24,SSW,194,3.0,10.0,82,0.00,,,0.23,,2013-04-11 12:42:00,
2013-04-11 05:52:00,46.0,41.0,30.24,South,190,2.0,8.0,82,0.00,,,0.23,,2013-04-11 12:52:00,
2013-04-11 06:02:00,46.0,41.0,30.24,SSW,198,3.0,13.0,82,0.00,,,0.23,,2013-04-11 13:02:00,
2013-04-11 06:12:00,46.0,41.0,30.24,SSW,196,3.0,11.0,82,0.00,,,0.23,,2013-04-11 13:12:00,
2013-04-11 06:22:00,46.0,41.0,30.24,SSW,196,3.0,11.0,82,0.00,,,0.23,,2013-04-11 13:22:00,
2013-04-11 06:32:00,46.0,41.0,30.24,WSW,258,1.0,7.0,83,0.00,,,0.23,,2013-04-11 13:32:00,
2013-04-11 06:42:00,46.0,41.0,30.24,WSW,258,1.0,7.0,83,0.00,,,0.23,,2013-04-11 13:42:00,
2013-04-11 06:53:00,46.0,41.0,30.24,South,185,4.0,11.0,83,0.00,,,0.23,,2013-04-11 13:53:00,
2013-04-11 07:01:00,46.0,41.0,30.25,SSW,212,3.0,15.0,83,0.00,,,0.23,,2013-04-11 14:01:00,
2013-04-11 07:12:00,46.0,41.0,30.25,WSW,249,2.0,12.0,83,0.00,,,0.23,,2013-04-11 14:12:00,
2013-04-11 07:21:00,46.0,41.0,30.25,WSW,249,2.0,12.0,83,0.00,,,0.23,,2013-04-11 14:21:00,
2013-04-11 07:31:00,46.0,41.0,30.25,SSW,195,3.0,9.0,83,0.00,,,0.23,,2013-04-11 14:31:00,
2013-04-11 07:41:00,46.0,41.0,30.25,SSW,195,3.0,9.0,83,0.00,,,0.23,,2013-04-11 14:41:00,
2013-04-11 07:52:00,46.0,41.0,30.26,West,266,1.0,7.0,83,0.00,,,0.23,,2013-04-11 14:52:00,
2013-04-11 08:02:00,46.0,41.0,30.26,SW,220,1.0,7.0,83,0.00,,,0.23,,2013-04-11 15:02:00,
2013-04-11 08:12:00,46.0,41.0,30.26,SSW,204,1.0,9.0,83,0.00,,,0.22,,2013-04-11 15:12:00,
2013-04-11 08:21:00,46.0,41.0,30.26,SSW,204,1.0,9.0,83,0.00,,,0.22,,2013-04-11 15:21:00,
2013-04-11 08:32:00,46.0,41.0,30.27,SW,215,3.0,9.0,84,0.00,,,0.22,,2013-04-11 15:32:00,
2013-04-11 08:42:00,46.0,41.0,30.27,SW,215,3.0,9.0,84,0.00,,,0.22,,2013-04-11 15:42:00,
2013-04-11 08:53:00,46.0,41.0,30.27,South,190,1.0,7.0,84,0.00,,,0.22,,2013-04-11 15:53:00,
2013-04-11 09:02:00,46.0,42.0,30.27,WSW,247,1.0,6.0,85,0.00,,,0.22,,2013-04-11 16:02:00,
2013-04-11 09:12:00,46.0,42.0,30.27,WSW,247,1.0,6.0,85,0.00,,,0.22,,2013-04-11 16:12:00,
2013-04-11 09:22:00,46.0,42.0,30.27,SW,232,1.0,4.0,87,0.01,,,0.12,,2013-04-11 16:22:00,
2013-04-11 09:32:00,46.0,43.0,30.26,West,266,0.0,5.0,88,0.01,,,0.12,,2013-04-11 16:32:00,
2013-04-11 09:41:00,46.0,43.0,30.26,West,266,0.0,3.0,90,0.01,,,0.12,,2013-04-11 16:41:00,
2013-04-11 09:52:00,46.0,43.0,30.26,West,266,0.0,3.0,90,0.01,,,0.12,,2013-04-11 16:52:00,
2013-04-11 10:01:00,46.0,43.0,30.27,West,264,0.0,3.0,89,0.01,,,0.12,,2013-04-11 17:01:00,
2013-04-11 10:12:00,46.0,43.0,30.27,West,264,0.0,3.0,89,0.01,,,0.12,,2013-04-11 17:12:00,
2013-04-11 10:22:00,46.0,43.0,30.28,NNW,342,0.0,5.0,88,0.00,,,0.05,,2013-04-11 17:22:00,
2013-04-11 10:32:00,45.0,42.0,30.27,East,83,3.0,6.0,89,0.05,,,0.10,,2013-04-11 17:32:00,
2013-04-11 10:42:00,45.0,42.0,30.27,East,83,3.0,6.0,89,0.05,,,0.10,,2013-04-11 17:42:00,
2013-04-11 10:52:00,45.0,43.0,30.27,ESE,111,1.0,4.0,91,0.08,,,0.13,,2013-04-11 17:52:00,
2013-04-11 11:02:00,45.0,43.0,30.29,ESE,109,0.0,4.0,91,0.09,,,0.14,,2013-04-11 18:02:00,
2013-04-11 11:12:00,45.0,43.0,30.29,ESE,109,0.0,4.0,91,0.09,,,0.14,,2013-04-11 18:12:00,
2013-04-11 11:22:00,45.0,43.0,30.30,ESE,108,1.0,3.0,91,0.10,,,0.12,,2013-04-11 18:22:00,
2013-04-11 11:32:00,45.0,43.0,30.29,ESE,109,1.0,4.0,91,0.05,,,0.12,,2013-04-11 18:32:00,
2013-04-11 11:42:00,45.0,43.0,30.29,ESE,109,1.0,4.0,91,0.05,,,0.12,,2013-04-11 18:42:00,
2013-04-11 11:53:00,46.0,44.0,30.29,ENE,61,1.0,4.0,91,0.03,,,0.13,,2013-04-11 18:53:00,
2013-04-11 12:02:00,46.0,44.0,30.30,ESE,105,0.0,3.0,91,0.02,,,0.13,,2013-04-11 19:02:00,
2013-04-11 12:13:00,46.0,44.0,30.30,ESE,105,0.0,3.0,91,0.02,,,0.13,,2013-04-11 19:13:00,
2013-04-11 12:22:00,45.0,42.0,30.29,ESE,114,0.0,4.0,90,0.01,,,0.12,,2013-04-11 19:22:00,
2013-04-11 12:32:00,46.0,43.0,30.29,SE,126,2.0,5.0,89,0.02,,,0.13,,2013-04-11 19:32:00,
2013-04-11 12:42:00,46.0,43.0,30.29,SE,126,2.0,5.0,89,0.02,,,0.13,,2013-04-11 19:42:00,
2013-04-11 12:53:00,46.0,43.0,30.28,SE,140,2.0,6.0,89,0.01,,,0.13,,2013-04-11 19:53:00,
2013-04-11 13:02:00,47.0,43.0,30.29,East,92,2.0,4.0,86,0.01,,,0.13,,2013-04-11 20:02:00,
2013-04-11 13:12:00,47.0,43.0,30.29,East,92,2.0,4.0,86,0.01,,,0.13,,2013-04-11 20:12:00,
2013-04-11 13:21:00,47.0,43.0,30.29,East,98,2.0,5.0,86,0.01,,,0.13,,2013-04-11 20:21:00,
2013-04-11 13:32:00,46.0,42.0,30.29,East,80,1.0,5.0,86,0.00,,,0.13,,2013-04-11 20:32:00,
2013-04-11 13:42:00,46.0,42.0,30.29,East,80,1.0,5.0,86,0.00,,,0.13,,2013-04-11 20:42:00,
2013-04-11 13:52:00,48.0,44.0,30.28,NE,53,0.0,4.0,85,0.00,,,0.13,,2013-04-11 20:52:00,
2013-04-11 14:01:00,47.0,42.0,30.27,ESE,116,1.0,9.0,84,0.00,,,0.13,,2013-04-11 21:01:00,
2013-04-11 14:11:00,47.0,42.0,30.27,ESE,116,1.0,9.0,84,0.00,,,0.13,,2013-04-11 21:11:00,
2013-04-11 14:22:00,49.0,44.0,30.27,NE,52,0.0,5.0,82,0.00,,,0.13,,2013-04-11 21:22:00,
2013-04-11 14:32:00,49.0,42.0,30.27,SSE,155,4.0,7.0,78,0.00,,,0.13,,2013-04-11 21:32:00,
2013-04-11 14:42:00,49.0,42.0,30.27,SSE,155,4.0,7.0,78,0.00,,,0.13,,2013-04-11 21:42:00,
2013-04-11 14:53:00,49.0,41.0,30.27,SE,126,4.0,7.0,73,0.00,,,0.13,,2013-04-11 21:53:00,
2013-04-11 15:02:00,49.0,41.0,30.27,ESE,106,4.0,5.0,74,0.00,,,0.13,,2013-04-11 22:02:00,
2013-04-11 15:13:00,49.0,41.0,30.27,ESE,106,4.0,5.0,74,0.00,,,0.13,,2013-04-11 22:13:00,
2013-04-11 15:22:00,50.0,42.0,30.27,East,88,1.0,4.0,73,0.00,,,0.13,,2013-04-11 22:22:00,
2013-04-11 15:32:00,50.0,42.0,30.26,East,90,0.0,2.0,75,0.00,,,0.13,,2013-04-11 22:32:00,
2013-04-11 15:43:00,50.0,42.0,30.26,East,90,0.0,2.0,75,0.00,,,0.13,,2013-04-11 22:43:00,
2013-04-11 15:53:00,49.0,43.0,30.26,NNW,335,2.0,4.0,81,0.00,,,0.13,,2013-04-11 22:53:00,
2013-04-11 16:02:00,48.0,43.0,30.26,NNW,330,0.0,2.0,82,0.01,,,0.14,,2013-04-11 23:02:00,
2013-04-11 16:12:00,48.0,43.0,30.26,NNW,330,0.0,2.0,82,0.01,,,0.14,,2013-04-11 23:12:00,
2013-04-11 16:22:00,49.0,44.0,30.26,NNW,330,0.0,2.0,82,0.01,,,0.14,,2013-04-11 23:22:00,
2013-04-11 16:31:00,49.0,43.0,30.25,NNW,330,0.0,2.0,79,0.01,,,0.14,,2013-04-11 23:31:00,
2013-04-11 16:42:00,49.0,43.0,30.25,NNW,330,0.0,2.0,79,0.01,,,0.14,,2013-04-11 23:42:00,
2013-04-11 16:53:00,50.0,43.0,30.25,East,101,0.0,4.0,78,0.01,,,0.14,,2013-04-11 23:53:00,
2013-04-11 17:02:00,50.0,42.0,30.25,ESE,107,2.0,4.0,74,0.00,,,0.14,,2013-04-12 00:02:00,
2013-04-11 17:11:00,50.0,42.0,30.25,ESE,107,2.0,4.0,74,0.00,,,0.14,,2013-04-12 00:11:00,
2013-04-11 17:21:00,51.0,42.0,30.24,ENE,67,1.0,5.0,71,0.00,,,0.14,,2013-04-12 00:21:00,
2013-04-11 17:32:00,51.0,42.0,30.23,East,96,3.0,5.0,72,0.00,,,0.14,,2013-04-12 00:32:00,
2013-04-11 17:42:00,51.0,42.0,30.23,East,96,3.0,5.0,72,0.00,,,0.14,,2013-04-12 00:42:00,
2013-04-11 17:53:00,50.0,41.0,30.23,ESE,111,2.0,6.0,72,0.00,,,0.14,,2013-04-12 00:53:00,
2013-04-11 18:02:00,50.0,41.0,30.22,East,99,2.0,4.0,72,0.00,,,0.14,,2013-04-12 01:02:00,
2013-04-11 18:11:00,50.0,41.0,30.22,East,99,2.0,4.0,72,0.00,,,0.14,,2013-04-12 01:11:00,
2013-04-11 18:22:00,50.0,42.0,30.22,ESE,123,2.0,5.0,73,0.00,,,0.14,,2013-04-12 01:22:00,
2013-04-11 18:32:00,50.0,42.0,30.22,East,81,1.0,4.0,74,0.00,,,0.14,,2013-04-12 01:32:00,
2013-04-11 18:42:00,50.0,42.0,30.22,East,81,1.0,4.0,74,0.00,,,0.14,,2013-04-12 01:42:00,
2013-04-11 18:52:00,50.0,42.0,30.22,East,81,0.0,3.0,74,0.00,,,0.14,,2013-04-12 01:52:00,
2013-04-11 19:02:00,50.0,41.0,30.22,East,81,0.0,3.0,72,0.00,,,0.14,,2013-04-12 02:02:00,
2013-04-11 19:12:00,50.0,41.0,30.22,East,81,0.0,3.0,72,0.00,,,0.14,,2013-04-12 02:12:00,
2013-04-11 19:22:00,50.0,42.0,30.21,East,81,0.0,2.0,73,0.00,,,0.14,,2013-04-12 02:22:00,
2013-04-11 19:32:00,50.0,42.0,30.21,East,81,0.0,2.0,75,0.00,,,0.14,,2013-04-12 02:32:00,
2013-04-11 19:42:00,50.0,42.0,30.21,East,81,0.0,2.0,75,0.00,,,0.14,,2013-04-12 02:42:00,
2013-04-11 19:52:00,50.0,42.0,30.21,East,81,0.0,2.0,75,0.00,,,0.14,,2013-04-12 02:52:00,
2013-04-11 20:01:00,50.0,42.0,30.20,East,82,2.0,4.0,74,0.00,,,0.14,,2013-04-12 03:01:00,
2013-04-11 20:11:00,50.0,42.0,30.20,East,82,2.0,4.0,74,0.00,,,0.14,,2013-04-12 03:11:00,
2013-04-11 20:22:00,49.0,42.0,30.20,SE,131,1.0,5.0,77,0.00,,,0.14,,2013-04-12 03:22:00,
2013-04-11 20:32:00,49.0,42.0,30.20,East,80,1.0,4.0,78,0.00,,,0.14,,2013-04-12 03:32:00,
2013-04-11 20:43:00,49.0,42.0,30.20,East,80,1.0,4.0,78,0.00,,,0.14,,2013-04-12 03:43:00,
2013-04-11 20:53:00,48.0,41.0,30.20,ENE,78,2.0,6.0,78,0.00,,,0.14,,2013-04-12 03:53:00,
2013-04-11 21:02:00,48.0,40.0,30.20,ENE,59,3.0,6.0,74,0.00,,,0.14,,2013-04-12 04:02:00,
2013-04-11 21:12:00,48.0,40.0,30.20,ENE,59,3.0,6.0,74,0.00,,,0.14,,2013-04-12 04:12:00,
2013-04-11 21:22:00,48.0,39.0,30.20,ENE,75,2.0,5.0,72,0.00,,,0.14,,2013-04-12 04:22:00,
2013-04-11 21:33:00,48.0,39.0,30.20,ENE,73,1.0,4.0,72,0.00,,,0.14,,2013-04-12 04:33:00,
2013-04-11 21:42:00,48.0,39.0,30.20,ENE,73,1.0,4.0,72,0.00,,,0.14,,2013-04-12 04:42:00,
2013-04-11 21:52:00,47.0,38.0,30.20,ENE,78,0.0,3.0,72,0.00,,,0.14,,2013-04-12 04:52:00,
2013-04-11 22:02:00,47.0,38.0,30.19,ENE,77,1.0,3.0,72,0.00,,,0.14,,2013-04-12 05:02:00,
2013-04-11 22:11:00,47.0,38.0,30.19,ENE,77,1.0,3.0,72,0.00,,,0.14,,2013-04-12 05:11:00,
2013-04-11 22:22:00,47.0,39.0,30.19,East,81,2.0,3.0,73,0.00,,,0.14,,2013-04-12 05:22:00,
2013-04-11 22:32:00,46.0,38.0,30.19,ESE,105,2.0,6.0,73,0.00,,,0.14,,2013-04-12 05:32:00,
2013-04-11 22:42:00,46.0,38.0,30.19,ESE,105,2.0,6.0,73,0.00,,,0.14,,2013-04-12 05:42:00,
2013-04-11 22:52:00,46.0,38.0,30.19,ESE,121,1.0,6.0,74,0.00,,,0.14,,2013-04-12 05:52:00,
2013-04-11 23:01:00,45.0,38.0,30.19,ESE,122,1.0,5.0,76,0.00,,,0.14,,2013-04-12 06:01:00,
2013-04-11 23:12:00,45.0,38.0,30.19,ESE,122,1.0,5.0,76,0.00,,,0.14,,2013-04-12 06:12:00,
2013-04-11 23:22:00,45.0,38.0,30.19,ESE,121,1.0,3.0,77,0.00,,,0.14,,2013-04-12 06:22:00,
2013-04-11 23:31:00,45.0,38.0,30.18,ESE,121,0.0,2.0,77,0.00,,,0.14,,2013-04-12 06:31:00,
2013-04-11 23:42:00,45.0,38.0,30.18,ESE,121,0.0,2.0,77,0.00,,,0.14,,2013-04-12 06:42:00,
2013-04-11 23:52:00,45.0,39.0,30.18,ESE,121,0.0,3.0,78,0.00,,,0.14,,2013-04-12 06:52:00,